Regional Weather Roundup
Issued by NWS

Home | Current Version | Previous Version | Text Only | Print | Product List | Glossary Off
Versions: 1 2 3 4 5 6 7 8 9 10 11 12 13 14 15 16 17 18 19 20 21 22 23 24 25 26 27 28 29 30 31 32 33 34 35 36 37 38 39 40 41 42 43 44 45 46 47 48 49 50

000
ASUS43 KBIS 260602
RWRND

NORTH DAKOTA REGIONAL WEATHER ROUNDUP
NATIONAL WEATHER SERVICE BISMARCK ND
100 AM CDT THU APR 26 2018

NOTE: "FAIR" INDICATES FEW OR NO CLOUDS BELOW 12,000 FEET WITH NO
SIGNIFICANT WEATHER AND/OR OBSTRUCTIONS TO VISIBILITY.


NDZ001>003-009>011-017-260700-
NORTHWEST NORTH DAKOTA

CITY           SKY/WX    TMP DP  RH WIND       PRES   REMARKS
WILLISTON      CLEAR     45  31  58 NE8       30.06R
6HR MIN TEMP:  45; 6HR MAX TEMP:  66;

MINOT          MOCLDY    48  31  51 NW12      29.97R
MINOT AFB      PTCLDY    45  34  65 NW8       29.97R
$$

NDZ018>021-031>035-040>046-260700-
SOUTHWEST NORTH DAKOTA

CITY           SKY/WX    TMP DP  RH WIND       PRES   REMARKS
BISMARCK       MOCLDY    53  36  52 N17G29    29.90R
6HR MIN TEMP:  53; 6HR MAX TEMP:  69;

DICKINSON      CLEAR     46  32  58 N9        29.99R
GARRISON         N/A     47  33  58 N10G20    29.96R
6HR MIN TEMP:  47; 6HR MAX TEMP:  65;

HETTINGER ARPT MOCLDY    48  32  53 N13       30.00R
$$

NDZ004>008-012>016-024-026-027-054-260700-
NORTHEAST NORTH DAKOTA

CITY           SKY/WX    TMP DP  RH WIND       PRES   REMARKS
GRAND FORKS    FAIR      48  32  53 N24G33    29.79R
GRND FRKS AFB  FAIR      48  29  48 N23G30    29.81R
DEVILS LAKE    CLOUDY    47  32  56 N18       29.89R
$$

NDZ022-023-025-028>030-036>039-047>053-260700-
SOUTHEAST NORTH DAKOTA

CITY           SKY/WX    TMP DP  RH WIND       PRES   REMARKS
FARGO          FAIR      49  36  61 S13       29.77F
6HR MIN TEMP:  49; 6HR MAX TEMP:  62;

JAMESTOWN      MOCLDY    48  32  53 NW14      29.78R
$$





USA.gov is the U.S. government's official web portal to all federal, state and local government web resources and services.